User: anonymous   Login
Location: Unspecified
(0.0000°N, 0.0000°E)
Time: 23:36:26
(UTC+00:00)
Language:

MOZHAYETS 4 - Orbit

View from above orbital plane
View from above orbital plane
View from above satellite
View from above satellite

Ground track
Ground track

The orbit data is extracted from the following two-line orbital elements,

1 27939U 03042A   19229.05571102  .00000004  00000-0  93976-5 0  9996
2 27939  98.0491   3.7415 0011960 236.1794 123.8242 14.66796077849244
Epoch (UTC): 17 August 2019 01:20:13
Eccentricity: 0.0011960
inclination: 98.0491°
perigee height: 663 km
apogee height: 680 km
right ascension of ascending node: 3.7415°
argument of perigee: 236.1794°
revolutions per day: 14.66796077
mean anomaly at epoch: 123.8242°
orbit number at epoch: 84924

The dashed part of the orbit path shows where the satellite is in the earth's shadow,  

DLR